Location: Centerville
(32.8776°N, 96.6203°W)
Time: 00:45:36
(UTC+00:00)

Cosmos 2150 Rocket - Pass Details

Date: 17 June 2021
Orbit: 749 x 808 km, 74.0° (Epoch: 01 August)

Event Time Altitude Azimuth Distance (km) Brightness Sun altitude
Rises 09:23:24 0° 347° (NNW) 3,215 7.7 -19.8°
Reaches altitude 10° 09:25:47 10° 351° (N) 2,293 7.0 -19.5°
Maximum altitude 09:30:56 62° 72° (ENE) 859 4.4 -18.7°
Drops below altitude 10° 09:36:08 10° 153° (SSE) 2,317 6.3 -18.0°
Sets 09:38:33 0° 156° (SSE) 3,250 7.0 -17.6°
